MST,Max TemperatureF,Mean TemperatureF,Min TemperatureF,Max Dew PointF,MeanDew PointF,Min DewpointF,Max Humidity, Mean Humidity, Min Humidity, Max Sea Level PressureIn, Mean Sea Level PressureIn, Min Sea Level PressureIn, Max VisibilityMiles, Mean VisibilityMiles, Min VisibilityMiles, Max Wind SpeedMPH, Mean Wind SpeedMPH, Max Gust SpeedMPH,PrecipitationIn, CloudCover, Events, WindDirDegrees
2012-11-1,66,45,24,18,10,3,50,27,13,30.30,30.22,30.14,10,10,10,17,7,21,0.00,0,,334
2012-11-2,64,44,23,14,7,1,43,25,12,30.22,30.18,30.13,10,10,10,12,5,,0.00,0,,1
2012-11-3,60,43,26,19,11,1,41,30,19,30.31,30.26,30.21,10,10,10,12,6,,0.00,0,,333
2012-11-4,64,42,21,18,10,3,58,33,12,30.38,30.33,30.28,10,10,10,10,6,,0.00,0,,360
2012-11-5,62,42,21,23,14,1,50,33,19,30.41,30.36,30.29,10,10,10,10,4,,0.00,0,,338
2012-11-6,68,47,26,21,15,9,55,33,14,30.40,30.35,30.30,10,10,8,10,5,,0.00,0,,357
2012-11-7,68,46,24,21,13,5,51,31,15,30.36,30.26,30.16,10,10,9,16,7,23,0.00,0,,325
2012-11-8,62,42,23,25,16,3,50,36,22,30.20,30.12,30.04,10,10,10,20,6,22,0.00,0,,322
2012-11-9,57,44,30,39,31,12,87,62,41,30.08,29.99,29.88,10,10,5,25,7,30,0.17,5,,222
2012-11-10,44,32,19,37,25,9,87,65,38,29.87,29.79,29.70,10,10,8,32,13,39,0.06,6,Thunderstorm,264
2012-11-11,33,22,12,16,7,-2,86,54,25,30.34,30.05,29.86,10,10,10,25,7,36,0.00,2,,292
2012-11-12,28,14,1,10,2,-6,85,66,34,30.47,30.40,30.34,10,10,10,9,4,16,0.00,0,,13
2012-11-13,26,18,10,12,7,1,79,67,54,30.36,30.34,30.32,10,10,10,8,5,,0.00,0,,3
2012-11-14,28,20,12,14,9,5,79,66,50,30.39,30.35,30.29,10,10,10,8,6,,0.00,0,,9
2012-11-15,55,35,15,12,8,3,68,51,14,30.41,30.33,30.28,10,10,10,10,6,,0.00,0,,15
2012-11-16,53,37,21,21,15,7,74,48,24,30.42,30.35,30.27,10,10,10,9,2,,0.00,1,,349
2012-11-17,57,38,19,27,19,10,69,51,29,30.34,30.26,30.20,10,10,10,14,4,16,0.00,0,,345
2012-11-18,57,40,23,30,21,16,80,54,28,30.30,30.21,30.14,10,10,10,15,5,21,0.00,1,,315
2012-11-19,57,38,19,25,16,9,80,51,15,30.39,30.35,30.29,10,10,10,10,5,,0.00,0,,354
2012-11-20,60,38,17,21,13,9,74,45,14,30.45,30.36,30.28,10,10,9,9,5,,0.00,0,,351
2012-11-21,57,38,19,25,15,7,74,46,19,30.33,30.26,30.18,10,10,10,14,6,18,0.00,0,,335
2012-11-22,55,36,17,25,16,9,80,51,23,30.40,30.28,30.20,10,10,10,12,5,,0.00,0,,17
2012-11-23,48,32,15,25,15,7,68,52,34,30.58,30.48,30.41,10,10,10,10,5,,0.00,0,,327
2012-11-24,55,35,15,21,14,7,79,49,23,30.45,30.30,30.18,10,10,10,9,5,,0.00,0,,14
2012-11-25,57,36,14,18,9,0,73,40,16,30.17,30.10,30.00,10,10,10,17,6,22,0.00,0,,317
2012-11-26,55,34,14,16,6,-2,58,37,16,30.37,30.21,30.07,10,10,10,9,3,,0.00,0,,359
2012-11-27,55,32,10,19,10,1,80,46,16,30.45,30.38,30.33,10,10,10,10,5,,0.00,0,,357
2012-11-28,55,32,8,12,6,-2,62,38,18,30.43,30.34,30.25,10,10,10,10,6,,0.00,0,,348
2012-11-29,57,36,15,25,14,1,68,45,24,30.29,30.25,30.20,10,10,10,18,6,23,0.00,0,,282
2012-11-30,57,38,19,28,17,9,69,47,25,30.27,30.22,30.16,10,10,10,15,5,20,0.00,0,,351